Time,TemperatureF,DewpointF,PressureIn,WindDirection,WindDirectionDegrees,WindSpeedMPH,WindSpeedGustMPH,Humidity,HourlyPrecipIn,Conditions,Clouds,dailyrainin,SoftwareType,DateUTC
2012-12-08 00:01:00,36.3,35.5,30.08,SSW,202,0.0,0.0,97,0.00,,,0.00,WUHU21623XXSP,2012-12-08 08:01:00,
2012-12-08 00:06:00,36.1,35.5,30.08,SSW,202,0.0,0.0,97,0.00,,,0.00,WUHU21623XXSP,2012-12-08 08:06:00,
2012-12-08 00:11:00,36.1,35.3,30.08,SSW,202,0.0,0.0,97,0.00,,,0.00,WUHU21623XXSP,2012-12-08 08:11:00,
2012-12-08 00:16:00,36.1,35.3,30.08,SSW,202,0.0,0.0,97,0.00,,,0.00,WUHU21623XXSP,2012-12-08 08:16:00,
2012-12-08 00:21:00,36.1,35.3,30.08,SSW,202,0.0,0.0,97,0.00,,,0.00,WUHU21623XXSP,2012-12-08 08:21:00,
2012-12-08 00:26:00,36.1,35.3,30.08,SSW,202,0.0,0.0,97,0.00,,,0.00,WUHU21623XXSP,2012-12-08 08:26:00,
2012-12-08 00:31:00,36.0,35.1,30.08,SSW,202,0.0,0.0,97,0.00,,,0.00,WUHU21623XXSP,2012-12-08 08:31:00,
2012-12-08 00:36:00,36.1,35.3,30.08,South,180,0.0,0.0,97,0.00,,,0.00,WUHU21623XXSP,2012-12-08 08:36:00,
2012-12-08 00:41:00,36.0,35.1,30.08,South,180,0.0,0.0,97,0.00,,,0.00,WUHU21623XXSP,2012-12-08 08:41:00,
2012-12-08 00:46:00,36.0,35.1,30.08,South,180,0.0,0.0,97,0.00,,,0.00,WUHU21623XXSP,2012-12-08 08:46:00,
2012-12-08 00:51:00,36.1,35.3,30.08,South,180,0.0,0.0,97,0.00,,,0.00,WUHU21623XXSP,2012-12-08 08:51:00,
2012-12-08 00:56:00,36.0,35.1,30.08,SSE,157,0.0,0.0,97,0.00,,,0.00,WUHU21623XXSP,2012-12-08 08:56:00,
2012-12-08 01:01:00,36.0,35.1,30.08,South,180,0.0,0.0,97,0.00,,,0.00,WUHU21623XXSP,2012-12-08 09:01:00,
2012-12-08 01:06:00,36.1,35.3,30.09,South,180,0.0,0.0,97,0.00,,,0.00,WUHU21623XXSP,2012-12-08 09:06:00,
2012-12-08 01:11:00,36.1,35.3,30.09,South,180,0.0,0.0,97,0.00,,,0.00,WUHU21623XXSP,2012-12-08 09:11:00,
2012-12-08 01:16:00,36.1,35.3,30.08,SE,135,0.0,0.0,97,0.00,,,0.00,WUHU21623XXSP,2012-12-08 09:16:00,
2012-12-08 01:21:00,36.1,35.3,30.09,SE,135,0.0,0.0,97,0.00,,,0.00,WUHU21623XXSP,2012-12-08 09:21:00,
2012-12-08 01:26:00,36.1,35.3,30.09,SE,135,0.0,0.0,97,0.00,,,0.00,WUHU21623XXSP,2012-12-08 09:26:00,
2012-12-08 01:31:00,36.0,35.1,30.09,SE,135,0.0,0.0,97,0.00,,,0.00,WUHU21623XXSP,2012-12-08 09:31:00,
2012-12-08 01:36:00,35.8,35.0,30.09,ESE,112,0.0,0.0,97,0.00,,,0.00,WUHU21623XXSP,2012-12-08 09:36:00,
2012-12-08 01:41:00,35.2,34.4,30.08,ESE,112,0.0,0.0,97,0.00,,,0.00,WUHU21623XXSP,2012-12-08 09:41:00,
2012-12-08 01:46:00,34.9,34.4,30.08,ESE,112,0.0,0.0,97,0.00,,,0.00,WUHU21623XXSP,2012-12-08 09:46:00,
2012-12-08 01:51:00,34.9,34.1,30.09,ESE,112,0.0,0.0,97,0.00,,,0.00,WUHU21623XXSP,2012-12-08 09:51:00,
2012-12-08 01:56:00,34.5,33.7,30.09,NE,45,0.0,0.0,97,0.00,,,0.00,WUHU21623XXSP,2012-12-08 09:56:00,
2012-12-08 02:01:00,34.3,33.5,30.10,NE,45,0.0,0.0,97,0.00,,,0.00,WUHU21623XXSP,2012-12-08 10:01:00,
2012-12-08 02:06:00,34.2,33.5,30.10,ENE,67,0.0,0.0,97,0.00,,,0.00,WUHU21623XXSP,2012-12-08 10:06:00,
2012-12-08 02:11:00,34.2,33.4,30.10,ESE,112,0.0,0.0,97,0.00,,,0.00,WUHU21623XXSP,2012-12-08 10:11:00,
2012-12-08 02:16:00,34.0,33.2,30.10,ESE,112,0.0,0.0,97,0.00,,,0.00,WUHU21623XXSP,2012-12-08 10:16:00,
2012-12-08 02:21:00,34.0,33.2,30.10,ESE,112,0.0,0.0,97,0.00,,,0.00,WUHU21623XXSP,2012-12-08 10:21:00,
2012-12-08 02:26:00,34.0,33.2,30.10,ESE,112,0.0,0.0,97,0.00,,,0.00,WUHU21623XXSP,2012-12-08 10:26:00,
2012-12-08 02:31:00,34.0,33.2,30.10,ESE,112,0.0,0.0,97,0.00,,,0.00,WUHU21623XXSP,2012-12-08 10:31:00,
2012-12-08 02:37:00,34.0,33.2,30.10,ESE,112,0.0,0.0,97,0.00,,,0.00,WUHU21623XXSP,2012-12-08 10:37:00,
2012-12-08 02:42:00,33.8,33.0,30.10,ESE,112,0.0,0.0,97,0.00,,,0.00,WUHU21623XXSP,2012-12-08 10:42:00,
2012-12-08 02:47:00,33.6,32.8,30.11,ESE,112,0.0,0.0,97,0.00,,,0.00,WUHU21623XXSP,2012-12-08 10:47:00,
2012-12-08 02:52:00,33.6,32.8,30.10,ESE,112,0.0,0.0,97,0.00,,,0.00,WUHU21623XXSP,2012-12-08 10:52:00,
2012-12-08 02:57:00,33.6,32.8,30.10,ESE,112,0.0,0.0,97,0.00,,,0.00,WUHU21623XXSP,2012-12-08 10:57:00,
2012-12-08 03:02:00,33.6,32.8,30.10,ESE,112,0.0,0.0,97,0.00,,,0.00,WUHU21623XXSP,2012-12-08 11:02:00,
2012-12-08 03:07:00,33.4,32.8,30.10,ESE,112,0.0,0.0,97,0.00,,,0.00,WUHU21623XXSP,2012-12-08 11:07:00,
2012-12-08 03:12:00,33.4,32.6,30.10,ESE,112,0.0,0.0,97,0.00,,,0.00,WUHU21623XXSP,2012-12-08 11:12:00,
2012-12-08 03:17:00,33.4,32.6,30.11,ESE,112,0.0,0.0,97,0.00,,,0.00,WUHU21623XXSP,2012-12-08 11:17:00,
2012-12-08 03:22:00,33.4,32.6,30.11,ESE,112,0.0,0.0,97,0.00,,,0.00,WUHU21623XXSP,2012-12-08 11:22:00,
2012-12-08 03:27:00,33.3,32.5,30.11,ESE,112,0.0,0.0,97,0.00,,,0.00,WUHU21623XXSP,2012-12-08 11:27:00,
2012-12-08 03:32:00,33.3,32.5,30.11,ESE,112,0.0,0.0,97,0.00,,,0.00,WUHU21623XXSP,2012-12-08 11:32:00,
2012-12-08 03:37:00,33.3,32.5,30.10,ESE,112,0.0,0.0,97,0.00,,,0.00,WUHU21623XXSP,2012-12-08 11:37:00,
2012-12-08 03:42:00,33.1,32.3,30.11,ESE,112,0.0,0.0,97,0.00,,,0.00,WUHU21623XXSP,2012-12-08 11:42:00,
2012-12-08 03:47:00,33.1,32.3,30.11,ESE,112,0.0,0.0,97,0.00,,,0.00,WUHU21623XXSP,2012-12-08 11:47:00,
2012-12-08 03:52:00,33.1,32.3,30.11,ESE,112,0.0,0.0,97,0.00,,,0.00,WUHU21623XXSP,2012-12-08 11:52:00,
2012-12-08 03:57:00,33.1,32.3,30.11,ESE,112,0.0,0.0,97,0.00,,,0.00,WUHU21623XXSP,2012-12-08 11:57:00,
2012-12-08 04:02:00,33.1,32.3,30.11,ESE,112,0.0,0.0,97,0.00,,,0.00,WUHU21623XXSP,2012-12-08 12:02:00,
2012-12-08 04:07:00,32.9,32.3,30.11,ESE,112,0.0,0.0,97,0.00,,,0.00,WUHU21623XXSP,2012-12-08 12:07:00,
2012-12-08 04:12:00,32.9,32.1,30.10,SE,135,0.0,0.0,97,0.00,,,0.00,WUHU21623XXSP,2012-12-08 12:12:00,
2012-12-08 04:17:00,32.9,32.1,30.10,SE,135,0.0,0.0,97,0.00,,,0.00,WUHU21623XXSP,2012-12-08 12:17:00,
2012-12-08 04:22:00,32.9,32.1,30.10,SE,135,0.0,0.0,97,0.00,,,0.00,WUHU21623XXSP,2012-12-08 12:22:00,
2012-12-08 04:27:00,33.1,32.1,30.11,SE,135,0.0,0.0,97,0.00,,,0.00,WUHU21623XXSP,2012-12-08 12:27:00,
2012-12-08 04:32:00,33.1,32.3,30.11,SE,135,0.0,0.0,97,0.00,,,0.00,WUHU21623XXSP,2012-12-08 12:32:00,
2012-12-08 04:37:00,33.1,32.3,30.11,SE,135,0.0,0.0,97,0.00,,,0.00,WUHU21623XXSP,2012-12-08 12:37:00,
2012-12-08 04:42:00,33.1,32.3,30.11,SE,135,0.0,0.0,97,0.00,,,0.00,WUHU21623XXSP,2012-12-08 12:42:00,
2012-12-08 04:47:00,32.9,32.3,30.11,SE,135,0.0,0.0,97,0.00,,,0.00,WUHU21623XXSP,2012-12-08 12:47:00,
2012-12-08 04:52:00,32.9,32.1,30.10,ESE,112,0.0,0.0,97,0.00,,,0.00,WUHU21623XXSP,2012-12-08 12:52:00,
2012-12-08 04:57:00,32.9,32.1,30.11,ESE,112,0.0,0.0,97,0.00,,,0.00,WUHU21623XXSP,2012-12-08 12:57:00,
2012-12-08 05:02:00,32.9,32.1,30.11,ESE,112,0.0,0.0,97,0.00,,,0.00,WUHU21623XXSP,2012-12-08 13:02:00,
2012-12-08 05:07:00,32.9,32.1,30.11,East,90,0.0,0.0,97,0.00,,,0.00,WUHU21623XXSP,2012-12-08 13:07:00,
2012-12-08 05:12:00,32.9,32.1,30.11,East,90,0.0,0.0,97,0.00,,,0.00,WUHU21623XXSP,2012-12-08 13:12:00,
2012-12-08 05:17:00,33.1,32.1,30.12,East,90,0.0,0.0,97,0.00,,,0.00,WUHU21623XXSP,2012-12-08 13:17:00,
2012-12-08 05:22:00,33.1,32.3,30.12,East,90,0.0,0.0,97,0.00,,,0.00,WUHU21623XXSP,2012-12-08 13:22:00,
2012-12-08 05:27:00,33.1,32.3,30.11,East,90,0.0,0.0,97,0.00,,,0.00,WUHU21623XXSP,2012-12-08 13:27:00,
2012-12-08 05:32:00,33.1,32.3,30.12,East,90,0.0,0.0,97,0.00,,,0.00,WUHU21623XXSP,2012-12-08 13:32:00,
2012-12-08 05:37:00,33.1,32.3,30.12,East,90,0.0,0.0,97,0.00,,,0.00,WUHU21623XXSP,2012-12-08 13:37:00,
2012-12-08 05:42:00,33.1,32.3,30.12,East,90,0.0,0.0,97,0.00,,,0.00,WUHU21623XXSP,2012-12-08 13:42:00,
2012-12-08 05:47:00,33.1,32.3,30.12,East,90,0.0,0.0,97,0.00,,,0.00,WUHU21623XXSP,2012-12-08 13:47:00,
2012-12-08 05:52:00,32.9,32.3,30.12,East,90,0.0,0.0,97,0.00,,,0.00,WUHU21623XXSP,2012-12-08 13:52:00,
2012-12-08 05:57:00,32.9,32.1,30.12,East,90,0.0,0.0,97,0.00,,,0.00,WUHU21623XXSP,2012-12-08 13:57:00,
2012-12-08 06:02:00,32.9,32.1,30.12,East,90,0.0,0.0,97,0.00,,,0.00,WUHU21623XXSP,2012-12-08 14:02:00,
2012-12-08 06:07:00,32.9,32.1,30.12,East,90,0.0,0.0,97,0.00,,,0.00,WUHU21623XXSP,2012-12-08 14:07:00,
2012-12-08 06:12:00,32.7,32.1,30.12,East,90,0.0,0.0,97,0.00,,,0.00,WUHU21623XXSP,2012-12-08 14:12:00,
2012-12-08 06:17:00,32.7,32.1,30.12,East,90,0.0,0.0,97,0.00,,,0.00,WUHU21623XXSP,2012-12-08 14:17:00,
2012-12-08 06:22:00,32.9,32.1,30.12,East,90,0.0,0.0,97,0.00,,,0.00,WUHU21623XXSP,2012-12-08 14:22:00,
2012-12-08 06:27:00,32.7,31.9,30.12,East,90,0.0,0.0,97,0.00,,,0.00,WUHU21623XXSP,2012-12-08 14:27:00,
2012-12-08 06:32:00,32.9,31.9,30.12,East,90,0.0,0.0,97,0.00,,,0.00,WUHU21623XXSP,2012-12-08 14:32:00,
2012-12-08 06:37:00,32.7,31.9,30.12,East,90,0.0,0.0,97,0.00,,,0.00,WUHU21623XXSP,2012-12-08 14:37:00,
2012-12-08 06:42:00,33.1,32.5,30.12,East,90,0.0,0.0,98,0.00,,,0.00,WUHU21623XXSP,2012-12-08 14:42:00,
2012-12-08 06:47:00,33.1,32.3,30.12,East,90,0.0,0.0,97,0.00,,,0.00,WUHU21623XXSP,2012-12-08 14:47:00,
2012-12-08 06:52:00,33.1,32.3,30.12,East,90,0.0,0.0,97,0.00,,,0.00,WUHU21623XXSP,2012-12-08 14:52:00,
2012-12-08 06:57:00,33.1,32.3,30.13,East,90,0.0,0.0,97,0.00,,,0.00,WUHU21623XXSP,2012-12-08 14:57:00,
2012-12-08 07:02:00,32.9,32.1,30.13,East,90,0.0,0.0,97,0.00,,,0.00,WUHU21623XXSP,2012-12-08 15:02:00,
2012-12-08 07:07:00,32.9,32.1,30.13,East,90,0.0,0.0,97,0.00,,,0.00,WUHU21623XXSP,2012-12-08 15:07:00,
2012-12-08 07:12:00,32.9,32.1,30.13,East,90,0.0,0.0,97,0.00,,,0.00,WUHU21623XXSP,2012-12-08 15:12:00,
2012-12-08 07:17:00,32.9,32.1,30.13,East,90,0.0,0.0,97,0.00,,,0.00,WUHU21623XXSP,2012-12-08 15:17:00,
2012-12-08 07:22:00,32.9,32.1,30.13,East,90,0.0,0.0,97,0.00,,,0.00,WUHU21623XXSP,2012-12-08 15:22:00,
2012-12-08 07:27:00,32.9,32.1,30.13,East,90,0.0,0.0,97,0.00,,,0.00,WUHU21623XXSP,2012-12-08 15:27:00,
2012-12-08 07:32:00,32.9,32.1,30.13,East,90,0.0,0.0,97,0.00,,,0.00,WUHU21623XXSP,2012-12-08 15:32:00,
2012-12-08 07:37:00,32.9,32.1,30.13,East,90,0.0,0.0,97,0.00,,,0.00,WUHU21623XXSP,2012-12-08 15:37:00,
2012-12-08 07:42:00,32.9,32.1,30.13,East,90,0.0,0.0,97,0.00,,,0.00,WUHU21623XXSP,2012-12-08 15:42:00,
2012-12-08 07:47:00,32.9,32.1,30.14,East,90,0.0,0.0,97,0.00,,,0.00,WUHU21623XXSP,2012-12-08 15:47:00,
2012-12-08 07:52:00,32.9,32.1,30.13,East,90,0.0,0.0,97,0.00,,,0.00,WUHU21623XXSP,2012-12-08 15:52:00,
2012-12-08 07:57:00,32.9,32.1,30.13,East,90,0.0,0.0,97,0.00,,,0.00,WUHU21623XXSP,2012-12-08 15:57:00,
2012-12-08 08:02:00,32.9,32.1,30.13,East,90,0.0,0.0,97,0.00,,,0.00,WUHU21623XXSP,2012-12-08 16:02:00,
2012-12-08 08:07:00,32.9,32.1,30.13,East,90,0.0,0.0,97,0.00,,,0.00,WUHU21623XXSP,2012-12-08 16:07:00,
2012-12-08 08:12:00,32.9,32.1,30.14,East,90,0.0,0.0,97,0.00,,,0.00,WUHU21623XXSP,2012-12-08 16:12:00,
2012-12-08 08:17:00,33.1,32.3,30.15,East,90,0.0,0.0,97,0.00,,,0.00,WUHU21623XXSP,2012-12-08 16:17:00,
2012-12-08 08:22:00,33.1,32.5,30.15,East,90,0.0,0.0,98,0.00,,,0.00,WUHU21623XXSP,2012-12-08 16:22:00,
2012-12-08 08:27:00,33.1,32.5,30.15,East,90,0.0,0.0,98,0.00,,,0.00,WUHU21623XXSP,2012-12-08 16:27:00,
2012-12-08 08:32:00,33.1,32.5,30.15,East,90,0.0,0.0,98,0.00,,,0.00,WUHU21623XXSP,2012-12-08 16:32:00,
2012-12-08 08:37:00,33.1,32.5,30.15,East,90,0.0,0.0,98,0.00,,,0.00,WUHU21623XXSP,2012-12-08 16:37:00,
2012-12-08 08:42:00,33.1,32.5,30.16,East,90,0.0,0.0,98,0.00,,,0.00,WUHU21623XXSP,2012-12-08 16:42:00,
2012-12-08 08:47:00,33.3,32.7,30.15,East,90,0.0,0.0,98,0.00,,,0.00,WUHU21623XXSP,2012-12-08 16:47:00,
2012-12-08 08:52:00,33.4,32.7,30.15,East,90,0.0,0.0,98,0.00,,,0.00,WUHU21623XXSP,2012-12-08 16:52:00,
2012-12-08 08:57:00,33.3,32.7,30.16,East,90,0.0,0.0,98,0.00,,,0.00,WUHU21623XXSP,2012-12-08 16:57:00,
2012-12-08 09:02:00,33.3,32.7,30.16,East,90,0.0,0.0,98,0.00,,,0.00,WUHU21623XXSP,2012-12-08 17:02:00,
2012-12-08 09:07:00,33.4,32.9,30.16,East,90,0.0,0.0,98,0.00,,,0.00,WUHU21623XXSP,2012-12-08 17:07:00,
2012-12-08 09:12:00,33.4,32.9,30.16,East,90,0.0,0.0,98,0.00,,,0.00,WUHU21623XXSP,2012-12-08 17:12:00,
2012-12-08 09:17:00,33.4,32.9,30.17,East,90,0.0,0.0,98,0.00,,,0.00,WUHU21623XXSP,2012-12-08 17:17:00,
2012-12-08 09:22:00,33.6,33.1,30.17,East,90,0.0,0.0,98,0.00,,,0.00,WUHU21623XXSP,2012-12-08 17:22:00,
2012-12-08 09:27:00,33.6,33.1,30.17,East,90,0.0,0.0,98,0.00,,,0.00,WUHU21623XXSP,2012-12-08 17:27:00,
2012-12-08 09:32:00,33.6,33.1,30.17,East,90,0.0,0.0,98,0.00,,,0.00,WUHU21623XXSP,2012-12-08 17:32:00,
2012-12-08 09:37:00,33.6,33.1,30.17,East,90,0.0,0.0,98,0.00,,,0.00,WUHU21623XXSP,2012-12-08 17:37:00,
2012-12-08 09:42:00,33.8,33.1,30.18,East,90,0.0,0.0,98,0.00,,,0.00,WUHU21623XXSP,2012-12-08 17:42:00,
2012-12-08 09:47:00,33.8,33.3,30.18,East,90,0.0,0.0,98,0.00,,,0.00,WUHU21623XXSP,2012-12-08 17:47:00,
2012-12-08 09:52:00,34.0,33.4,30.18,East,90,0.0,0.0,98,0.00,,,0.00,WUHU21623XXSP,2012-12-08 17:52:00,
2012-12-08 09:57:00,34.0,33.4,30.18,East,90,0.0,0.0,98,0.00,,,0.00,WUHU21623XXSP,2012-12-08 17:57:00,
2012-12-08 10:02:00,34.2,33.6,30.18,East,90,0.0,0.0,98,0.00,,,0.00,WUHU21623XXSP,2012-12-08 18:02:00,
2012-12-08 10:07:00,34.3,33.8,30.18,East,90,0.0,0.0,98,0.00,,,0.00,WUHU21623XXSP,2012-12-08 18:07:00,
2012-12-08 10:12:00,34.3,33.8,30.18,East,90,0.0,0.0,98,0.00,,,0.00,WUHU21623XXSP,2012-12-08 18:12:00,
2012-12-08 10:17:00,34.5,34.0,30.19,East,90,0.0,0.0,98,0.00,,,0.00,WUHU21623XXSP,2012-12-08 18:17:00,
2012-12-08 10:22:00,34.5,33.7,30.19,East,90,0.0,0.0,98,0.00,,,0.00,WUHU21623XXSP,2012-12-08 18:22:00,
2012-12-08 10:27:00,34.7,34.2,30.19,East,90,0.0,0.0,98,0.00,,,0.00,WUHU21623XXSP,2012-12-08 18:27:00,
2012-12-08 10:32:00,34.9,34.3,30.19,East,90,0.0,0.0,97,0.00,,,0.00,WUHU21623XXSP,2012-12-08 18:32:00,
2012-12-08 10:37:00,34.9,34.1,30.19,East,90,0.0,0.0,97,0.00,,,0.00,WUHU21623XXSP,2012-12-08 18:37:00,
2012-12-08 10:42:00,35.2,34.3,30.19,East,90,0.0,0.0,98,0.00,,,0.00,WUHU21623XXSP,2012-12-08 18:42:00,
2012-12-08 10:47:00,35.4,34.9,30.19,East,90,0.0,0.0,98,0.00,,,0.00,WUHU21623XXSP,2012-12-08 18:47:00,
2012-12-08 10:52:00,35.4,34.9,30.19,ENE,67,0.0,0.0,98,0.00,,,0.00,WUHU21623XXSP,2012-12-08 18:52:00,
2012-12-08 10:57:00,35.6,35.1,30.20,ENE,67,0.0,0.0,98,0.00,,,0.00,WUHU21623XXSP,2012-12-08 18:57:00,
2012-12-08 11:02:00,35.8,35.0,30.20,ENE,67,0.0,0.0,97,0.00,,,0.00,WUHU21623XXSP,2012-12-08 19:02:00,
2012-12-08 11:07:00,35.8,35.0,30.20,ENE,67,0.0,0.0,97,0.00,,,0.00,WUHU21623XXSP,2012-12-08 19:07:00,
2012-12-08 11:12:00,35.8,35.0,30.19,NE,45,0.0,0.0,97,0.00,,,0.00,WUHU21623XXSP,2012-12-08 19:12:00,
2012-12-08 11:17:00,36.0,35.1,30.19,SSE,157,0.0,0.0,97,0.00,,,0.00,WUHU21623XXSP,2012-12-08 19:17:00,
2012-12-08 11:22:00,36.0,35.1,30.19,SSE,157,0.0,0.0,97,0.00,,,0.00,WUHU21623XXSP,2012-12-08 19:22:00,
2012-12-08 11:27:00,36.1,35.3,30.19,SSE,157,0.0,0.0,97,0.00,,,0.00,WUHU21623XXSP,2012-12-08 19:27:00,
2012-12-08 11:32:00,36.3,35.5,30.20,SSE,157,0.0,0.0,97,0.00,,,0.00,WUHU21623XXSP,2012-12-08 19:32:00,
2012-12-08 11:37:00,36.3,35.5,30.20,SSE,157,0.0,0.0,97,0.00,,,0.00,WUHU21623XXSP,2012-12-08 19:37:00,
2012-12-08 11:42:00,36.3,35.5,30.19,SSE,157,0.0,0.0,97,0.00,,,0.00,WUHU21623XXSP,2012-12-08 19:42:00,
2012-12-08 11:47:00,36.5,35.7,30.20,SSE,157,0.0,0.0,97,0.00,,,0.00,WUHU21623XXSP,2012-12-08 19:47:00,
2012-12-08 11:52:00,36.7,35.9,30.20,SSE,157,0.0,0.0,97,0.00,,,0.00,WUHU21623XXSP,2012-12-08 19:52:00,
2012-12-08 11:57:00,36.7,35.9,30.20,SSE,157,0.0,0.0,97,0.00,,,0.00,WUHU21623XXSP,2012-12-08 19:57:00,
2012-12-08 12:02:00,37.0,36.5,30.20,SSE,157,0.0,0.0,98,0.00,,,0.00,WUHU21623XXSP,2012-12-08 20:02:00,
2012-12-08 12:07:00,37.0,36.5,30.20,SSE,157,0.0,0.0,98,0.00,,,0.00,WUHU21623XXSP,2012-12-08 20:07:00,
2012-12-08 12:12:00,37.0,36.5,30.20,SSE,157,0.0,0.0,98,0.00,,,0.00,WUHU21623XXSP,2012-12-08 20:12:00,
2012-12-08 12:17:00,37.2,36.7,30.20,SSE,157,0.0,0.0,98,0.00,,,0.00,WUHU21623XXSP,2012-12-08 20:17:00,
2012-12-08 12:22:00,37.2,36.7,30.20,SSE,157,0.0,0.0,98,0.00,,,0.00,WUHU21623XXSP,2012-12-08 20:22:00,
2012-12-08 12:27:00,37.2,36.7,30.20,SSE,157,0.0,0.0,98,0.00,,,0.00,WUHU21623XXSP,2012-12-08 20:27:00,
2012-12-08 12:32:00,37.4,36.9,30.19,SSE,157,0.0,0.0,98,0.00,,,0.00,WUHU21623XXSP,2012-12-08 20:32:00,
2012-12-08 12:37:00,37.6,37.0,30.20,SSE,157,0.0,0.0,98,0.00,,,0.00,WUHU21623XXSP,2012-12-08 20:37:00,
2012-12-08 12:42:00,37.8,37.0,30.20,SSE,157,0.0,0.0,98,0.00,,,0.00,WUHU21623XXSP,2012-12-08 20:42:00,
2012-12-08 12:47:00,37.9,37.4,30.20,SSE,157,0.0,0.0,98,0.00,,,0.00,WUHU21623XXSP,2012-12-08 20:47:00,
2012-12-08 12:52:00,37.9,37.4,30.20,SW,225,0.0,0.0,98,0.00,,,0.00,WUHU21623XXSP,2012-12-08 20:52:00,
2012-12-08 12:57:00,37.9,37.1,30.20,NNE,22,0.0,0.0,97,0.00,,,0.00,WUHU21623XXSP,2012-12-08 20:57:00,
2012-12-08 13:02:00,37.9,37.1,30.20,NNE,22,0.0,0.0,97,0.00,,,0.00,WUHU21623XXSP,2012-12-08 21:02:00,
2012-12-08 13:07:00,37.8,37.0,30.20,NNE,22,0.0,0.0,97,0.00,,,0.00,WUHU21623XXSP,2012-12-08 21:07:00,
2012-12-08 13:12:00,37.9,37.1,30.20,NNE,22,0.0,0.0,97,0.00,,,0.00,WUHU21623XXSP,2012-12-08 21:12:00,
2012-12-08 13:17:00,37.9,37.1,30.20,NNE,22,0.0,0.0,97,0.00,,,0.00,WUHU21623XXSP,2012-12-08 21:17:00,
2012-12-08 13:22:00,37.9,37.1,30.20,NNE,22,0.0,0.0,97,0.00,,,0.00,WUHU21623XXSP,2012-12-08 21:22:00,
2012-12-08 13:27:00,37.9,37.1,30.20,West,270,0.0,0.0,97,0.00,,,0.00,WUHU21623XXSP,2012-12-08 21:27:00,
2012-12-08 13:32:00,37.9,37.1,30.20,West,270,0.0,0.0,97,0.00,,,0.00,WUHU21623XXSP,2012-12-08 21:32:00,
2012-12-08 13:37:00,37.9,37.1,30.20,West,270,0.0,0.0,97,0.00,,,0.00,WUHU21623XXSP,2012-12-08 21:37:00,
2012-12-08 13:42:00,37.9,37.1,30.20,West,270,0.0,0.0,97,0.00,,,0.00,WUHU21623XXSP,2012-12-08 21:42:00,
2012-12-08 13:47:00,37.9,37.1,30.20,West,270,0.0,0.0,97,0.00,,,0.00,WUHU21623XXSP,2012-12-08 21:47:00,
2012-12-08 13:52:00,37.9,37.1,30.20,WSW,247,0.0,0.0,97,0.00,,,0.00,WUHU21623XXSP,2012-12-08 21:52:00,
2012-12-08 13:57:00,37.9,37.1,30.20,WSW,247,0.0,0.0,97,0.00,,,0.00,WUHU21623XXSP,2012-12-08 21:57:00,
2012-12-08 14:02:00,37.9,37.1,30.20,West,270,0.0,0.0,97,0.00,,,0.00,WUHU21623XXSP,2012-12-08 22:02:00,
2012-12-08 14:07:00,37.9,37.1,30.20,West,270,0.0,0.0,97,0.00,,,0.00,WUHU21623XXSP,2012-12-08 22:07:00,
2012-12-08 14:12:00,37.8,37.0,30.20,West,270,0.0,0.0,97,0.00,,,0.00,WUHU21623XXSP,2012-12-08 22:12:00,
2012-12-08 14:17:00,37.8,37.0,30.20,West,270,0.0,0.0,97,0.00,,,0.00,WUHU21623XXSP,2012-12-08 22:17:00,
2012-12-08 14:22:00,37.8,37.0,30.20,West,270,0.0,0.0,97,0.00,,,0.00,WUHU21623XXSP,2012-12-08 22:22:00,
2012-12-08 14:27:00,37.9,37.1,30.20,West,270,0.0,0.0,97,0.00,,,0.00,WUHU21623XXSP,2012-12-08 22:27:00,
2012-12-08 14:32:00,37.8,37.0,30.20,West,270,0.0,0.0,97,0.00,,,0.00,WUHU21623XXSP,2012-12-08 22:32:00,
2012-12-08 14:37:00,37.8,37.0,30.20,West,270,0.0,0.0,97,0.00,,,0.00,WUHU21623XXSP,2012-12-08 22:37:00,
2012-12-08 14:42:00,37.6,36.8,30.20,West,270,0.0,0.0,97,0.00,,,0.00,WUHU21623XXSP,2012-12-08 22:42:00,
2012-12-08 14:47:00,37.6,36.8,30.20,West,270,0.0,0.0,97,0.00,,,0.00,WUHU21623XXSP,2012-12-08 22:47:00,
2012-12-08 14:52:00,37.6,36.8,30.20,West,270,0.0,0.0,97,0.00,,,0.00,WUHU21623XXSP,2012-12-08 22:52:00,
2012-12-08 14:57:00,37.6,36.8,30.21,West,270,0.0,0.0,97,0.00,,,0.00,WUHU21623XXSP,2012-12-08 22:57:00,
2012-12-08 15:02:00,37.4,36.6,30.21,West,270,0.0,0.0,97,0.00,,,0.00,WUHU21623XXSP,2012-12-08 23:02:00,
2012-12-08 15:07:00,37.2,36.4,30.21,West,270,0.0,0.0,97,0.00,,,0.00,WUHU21623XXSP,2012-12-08 23:07:00,
2012-12-08 15:12:00,37.2,36.4,30.22,West,270,0.0,0.0,97,0.00,,,0.00,WUHU21623XXSP,2012-12-08 23:12:00,
2012-12-08 15:17:00,37.2,36.4,30.22,West,270,0.0,0.0,97,0.00,,,0.00,WUHU21623XXSP,2012-12-08 23:17:00,
2012-12-08 15:22:00,37.2,36.4,30.21,West,270,0.0,0.0,97,0.00,,,0.00,WUHU21623XXSP,2012-12-08 23:22:00,
2012-12-08 15:27:00,37.2,36.4,30.21,West,270,0.0,0.0,97,0.00,,,0.00,WUHU21623XXSP,2012-12-08 23:27:00,
2012-12-08 15:32:00,37.2,36.4,30.22,West,270,0.0,0.0,97,0.00,,,0.00,WUHU21623XXSP,2012-12-08 23:32:00,
2012-12-08 15:37:00,37.0,36.2,30.23,West,270,0.0,0.0,97,0.00,,,0.00,WUHU21623XXSP,2012-12-08 23:37:00,
2012-12-08 15:42:00,37.0,36.2,30.23,West,270,0.0,0.0,97,0.00,,,0.00,WUHU21623XXSP,2012-12-08 23:42:00,
2012-12-08 15:47:00,36.9,36.0,30.23,West,270,0.0,0.0,97,0.00,,,0.00,WUHU21623XXSP,2012-12-08 23:47:00,
2012-12-08 15:52:00,36.7,35.9,30.23,West,270,0.0,0.0,97,0.00,,,0.00,WUHU21623XXSP,2012-12-08 23:52:00,
2012-12-08 15:57:00,36.5,35.7,30.23,West,270,0.0,0.0,97,0.00,,,0.00,WUHU21623XXSP,2012-12-08 23:57:00,
2012-12-08 16:02:00,36.3,35.5,30.23,West,270,0.0,0.0,97,0.00,,,0.00,WUHU21623XXSP,2012-12-09 00:02:00,
2012-12-08 16:07:00,36.3,35.5,30.23,West,270,0.0,0.0,97,0.00,,,0.00,WUHU21623XXSP,2012-12-09 00:07:00,
2012-12-08 16:12:00,36.3,35.5,30.23,West,270,0.0,0.0,97,0.00,,,0.00,WUHU21623XXSP,2012-12-09 00:12:00,
2012-12-08 16:17:00,36.1,35.3,30.23,West,270,0.0,0.0,97,0.00,,,0.00,WUHU21623XXSP,2012-12-09 00:17:00,
2012-12-08 16:22:00,36.1,35.3,30.23,West,270,0.0,0.0,97,0.00,,,0.00,WUHU21623XXSP,2012-12-09 00:22:00,
2012-12-08 16:27:00,36.0,35.1,30.23,West,270,0.0,0.0,97,0.00,,,0.00,WUHU21623XXSP,2012-12-09 00:27:00,
2012-12-08 16:32:00,35.8,35.0,30.23,West,270,0.0,0.0,97,0.00,,,0.00,WUHU21623XXSP,2012-12-09 00:32:00,
2012-12-08 16:37:00,35.8,35.0,30.23,West,270,0.0,0.0,97,0.00,,,0.00,WUHU21623XXSP,2012-12-09 00:37:00,
2012-12-08 16:42:00,35.6,34.8,30.23,West,270,0.0,0.0,97,0.00,,,0.00,WUHU21623XXSP,2012-12-09 00:42:00,
2012-12-08 16:47:00,35.4,34.6,30.23,West,270,0.0,0.0,97,0.00,,,0.00,WUHU21623XXSP,2012-12-09 00:47:00,
2012-12-08 16:52:00,35.4,34.6,30.23,West,270,0.0,0.0,97,0.00,,,0.00,WUHU21623XXSP,2012-12-09 00:52:00,
2012-12-08 16:58:00,35.2,34.4,30.23,West,270,0.0,0.0,97,0.00,,,0.00,WUHU21623XXSP,2012-12-09 00:58:00,
2012-12-08 17:03:00,35.2,34.4,30.23,West,270,0.0,0.0,97,0.00,,,0.00,WUHU21623XXSP,2012-12-09 01:03:00,
2012-12-08 17:08:00,35.2,34.4,30.23,West,270,0.0,0.0,97,0.00,,,0.00,WUHU21623XXSP,2012-12-09 01:08:00,
2012-12-08 17:13:00,35.1,34.3,30.23,West,270,0.0,0.0,97,0.00,,,0.00,WUHU21623XXSP,2012-12-09 01:13:00,
2012-12-08 17:18:00,35.1,34.4,30.24,West,270,0.0,0.0,97,0.00,,,0.00,WUHU21623XXSP,2012-12-09 01:18:00,
2012-12-08 17:23:00,35.1,34.3,30.23,West,270,0.0,0.0,97,0.00,,,0.00,WUHU21623XXSP,2012-12-09 01:23:00,
2012-12-08 17:28:00,34.9,34.1,30.24,West,270,0.0,0.0,97,0.00,,,0.00,WUHU21623XXSP,2012-12-09 01:28:00,
2012-12-08 17:33:00,34.9,34.1,30.23,West,270,0.0,0.0,97,0.00,,,0.00,WUHU21623XXSP,2012-12-09 01:33:00,
2012-12-08 17:38:00,34.9,34.1,30.24,West,270,0.0,0.0,97,0.00,,,0.00,WUHU21623XXSP,2012-12-09 01:38:00,
2012-12-08 17:43:00,34.7,33.9,30.24,West,270,0.0,0.0,97,0.00,,,0.00,WUHU21623XXSP,2012-12-09 01:43:00,
2012-12-08 17:48:00,34.7,33.9,30.24,West,270,0.0,0.0,97,0.00,,,0.00,WUHU21623XXSP,2012-12-09 01:48:00,
2012-12-08 17:53:00,34.7,33.9,30.24,West,270,0.0,0.0,97,0.00,,,0.00,WUHU21623XXSP,2012-12-09 01:53:00,
2012-12-08 17:58:00,34.7,33.9,30.24,West,270,0.0,0.0,97,0.00,,,0.00,WUHU21623XXSP,2012-12-09 01:58:00,
2012-12-08 18:03:00,34.7,33.9,30.24,West,270,0.0,0.0,97,0.00,,,0.00,WUHU21623XXSP,2012-12-09 02:03:00,
2012-12-08 18:08:00,34.5,33.7,30.25,West,270,0.0,0.0,97,0.00,,,0.00,WUHU21623XXSP,2012-12-09 02:08:00,
2012-12-08 18:13:00,34.5,33.7,30.25,West,270,0.0,0.0,97,0.00,,,0.00,WUHU21623XXSP,2012-12-09 02:13:00,
2012-12-08 18:18:00,34.3,33.5,30.25,West,270,0.0,0.0,97,0.00,,,0.00,WUHU21623XXSP,2012-12-09 02:18:00,
2012-12-08 18:23:00,34.3,33.5,30.25,West,270,0.0,0.0,97,0.00,,,0.00,WUHU21623XXSP,2012-12-09 02:23:00,
2012-12-08 18:28:00,34.3,33.5,30.25,West,270,0.0,0.0,97,0.00,,,0.00,WUHU21623XXSP,2012-12-09 02:28:00,
2012-12-08 18:33:00,34.3,33.5,30.26,West,270,0.0,0.0,97,0.00,,,0.00,WUHU21623XXSP,2012-12-09 02:33:00,
2012-12-08 18:38:00,34.3,33.5,30.26,West,270,0.0,0.0,97,0.00,,,0.00,WUHU21623XXSP,2012-12-09 02:38:00,
2012-12-08 18:43:00,34.3,33.5,30.26,West,270,0.0,0.0,97,0.00,,,0.00,WUHU21623XXSP,2012-12-09 02:43:00,
2012-12-08 18:48:00,34.3,33.5,30.26,West,270,0.0,0.0,97,0.00,,,0.00,WUHU21623XXSP,2012-12-09 02:48:00,
2012-12-08 18:53:00,34.2,33.4,30.26,NNW,337,0.0,0.0,97,0.00,,,0.00,WUHU21623XXSP,2012-12-09 02:53:00,
2012-12-08 18:58:00,34.2,33.4,30.26,NNW,337,0.0,0.0,97,0.00,,,0.00,WUHU21623XXSP,2012-12-09 02:58:00,
2012-12-08 19:03:00,34.2,33.4,30.26,NNW,337,0.0,0.0,97,0.00,,,0.00,WUHU21623XXSP,2012-12-09 03:03:00,
2012-12-08 19:08:00,34.0,33.4,30.26,NNW,337,0.0,0.0,97,0.00,,,0.00,WUHU21623XXSP,2012-12-09 03:08:00,
2012-12-08 19:13:00,34.0,33.2,30.26,NNW,337,0.0,0.0,97,0.00,,,0.00,WUHU21623XXSP,2012-12-09 03:13:00,
2012-12-08 19:18:00,34.0,33.2,30.26,NNW,337,0.0,0.0,97,0.00,,,0.00,WUHU21623XXSP,2012-12-09 03:18:00,
2012-12-08 19:23:00,34.0,33.2,30.27,NNW,337,0.0,0.0,97,0.00,,,0.00,WUHU21623XXSP,2012-12-09 03:23:00,
2012-12-08 19:28:00,34.0,33.2,30.26,NNW,337,0.0,0.0,97,0.00,,,0.00,WUHU21623XXSP,2012-12-09 03:28:00,
2012-12-08 19:33:00,34.0,33.2,30.27,NNW,337,0.0,0.0,97,0.00,,,0.00,WUHU21623XXSP,2012-12-09 03:33:00,
2012-12-08 19:38:00,34.0,33.2,30.26,NNW,337,0.0,0.0,97,0.00,,,0.00,WUHU21623XXSP,2012-12-09 03:38:00,
2012-12-08 19:43:00,34.0,33.2,30.27,NNW,337,0.0,0.0,97,0.00,,,0.00,WUHU21623XXSP,2012-12-09 03:43:00,
2012-12-08 19:48:00,34.0,33.2,30.26,NNW,337,0.0,0.0,97,0.00,,,0.00,WUHU21623XXSP,2012-12-09 03:48:00,
2012-12-08 19:53:00,34.0,33.2,30.26,NNW,337,0.0,0.0,97,0.00,,,0.00,WUHU21623XXSP,2012-12-09 03:53:00,
2012-12-08 19:58:00,33.8,33.0,30.27,NNW,337,0.0,0.0,97,0.00,,,0.00,WUHU21623XXSP,2012-12-09 03:58:00,
2012-12-08 20:03:00,33.8,33.0,30.27,NNW,337,0.0,0.0,97,0.00,,,0.00,WUHU21623XXSP,2012-12-09 04:03:00,
2012-12-08 20:08:00,34.0,33.2,30.28,NNW,337,0.0,0.0,97,0.00,,,0.00,WUHU21623XXSP,2012-12-09 04:08:00,
2012-12-08 20:13:00,34.0,33.2,30.27,NNW,337,0.0,0.0,97,0.00,,,0.00,WUHU21623XXSP,2012-12-09 04:13:00,
2012-12-08 20:18:00,34.0,33.2,30.28,NNW,337,0.0,0.0,97,0.00,,,0.00,WUHU21623XXSP,2012-12-09 04:18:00,
2012-12-08 20:23:00,34.0,33.0,30.27,NNW,337,0.0,0.0,97,0.00,,,0.00,WUHU21623XXSP,2012-12-09 04:23:00,
2012-12-08 20:28:00,33.8,33.2,30.28,NNW,337,0.0,0.0,97,0.00,,,0.00,WUHU21623XXSP,2012-12-09 04:28:00,
2012-12-08 20:33:00,33.8,33.0,30.28,NNW,337,0.0,0.0,97,0.00,,,0.00,WUHU21623XXSP,2012-12-09 04:33:00,
2012-12-08 20:38:00,33.8,33.0,30.28,NNW,337,0.0,0.0,97,0.00,,,0.00,WUHU21623XXSP,2012-12-09 04:38:00,
2012-12-08 20:43:00,33.8,33.0,30.28,NNW,337,0.0,0.0,97,0.00,,,0.00,WUHU21623XXSP,2012-12-09 04:43:00,
2012-12-08 20:48:00,33.6,32.8,30.28,NNW,337,0.0,0.0,97,0.00,,,0.00,WUHU21623XXSP,2012-12-09 04:48:00,
2012-12-08 20:53:00,33.6,32.8,30.28,NNW,337,0.0,0.0,97,0.00,,,0.00,WUHU21623XXSP,2012-12-09 04:53:00,
2012-12-08 20:58:00,33.6,32.8,30.28,NNW,337,0.0,0.0,97,0.00,,,0.00,WUHU21623XXSP,2012-12-09 04:58:00,
2012-12-08 21:00:00,33.6,32.8,30.28,NNW,337,0.0,0.0,97,0.00,,,0.00,WUHU21623XXSP,2012-12-09 05:00:00,
2012-12-08 21:05:00,33.6,32.8,30.28,NNW,337,0.0,0.0,97,0.00,,,0.00,WUHU21623XXSP,2012-12-09 05:05:00,
2012-12-08 21:10:00,33.6,32.8,30.28,NNW,337,0.0,0.0,97,0.00,,,0.00,WUHU21623XXSP,2012-12-09 05:10:00,
2012-12-08 21:15:00,33.6,32.8,30.28,NNW,337,0.0,0.0,97,0.00,,,0.00,WUHU21623XXSP,2012-12-09 05:15:00,
2012-12-08 21:20:00,33.6,32.8,30.28,NNW,337,0.0,0.0,97,0.00,,,0.00,WUHU21623XXSP,2012-12-09 05:20:00,
2012-12-08 21:25:00,33.4,32.6,30.28,NNW,337,0.0,0.0,97,0.00,,,0.00,WUHU21623XXSP,2012-12-09 05:25:00,
2012-12-08 21:30:00,33.4,32.6,30.28,NNW,337,0.0,0.0,97,0.00,,,0.00,WUHU21623XXSP,2012-12-09 05:30:00,
2012-12-08 21:35:00,33.4,32.6,30.28,NNW,337,0.0,0.0,97,0.00,,,0.00,WUHU21623XXSP,2012-12-09 05:35:00,
2012-12-08 21:40:00,33.4,32.6,30.28,NNW,337,0.0,0.0,97,0.00,,,0.00,WUHU21623XXSP,2012-12-09 05:40:00,
2012-12-08 21:45:00,33.3,32.5,30.29,NNW,337,0.0,0.0,97,0.00,,,0.00,WUHU21623XXSP,2012-12-09 05:45:00,
2012-12-08 21:50:00,33.3,32.5,30.29,NNW,337,0.0,0.0,97,0.00,,,0.00,WUHU21623XXSP,2012-12-09 05:50:00,
2012-12-08 21:55:00,33.3,32.5,30.29,NNW,337,0.0,0.0,97,0.00,,,0.00,WUHU21623XXSP,2012-12-09 05:55:00,
2012-12-08 22:00:00,33.3,32.7,30.29,NNW,337,0.0,0.0,98,0.00,,,0.00,WUHU21623XXSP,2012-12-09 06:00:00,
2012-12-08 22:05:00,33.3,32.5,30.29,NNW,337,0.0,0.0,97,0.00,,,0.00,WUHU21623XXSP,2012-12-09 06:05:00,
2012-12-08 22:10:00,33.3,32.5,30.29,NNW,337,0.0,0.0,97,0.00,,,0.00,WUHU21623XXSP,2012-12-09 06:10:00,
2012-12-08 22:15:00,33.3,32.7,30.29,NNW,337,0.0,0.0,98,0.00,,,0.00,WUHU21623XXSP,2012-12-09 06:15:00,
2012-12-08 22:20:00,33.3,32.7,30.29,NNW,337,0.0,0.0,98,0.00,,,0.00,WUHU21623XXSP,2012-12-09 06:20:00,
2012-12-08 22:25:00,33.3,32.7,30.29,NNW,337,0.0,0.0,98,0.00,,,0.00,WUHU21623XXSP,2012-12-09 06:25:00,
2012-12-08 22:30:00,33.3,32.7,30.30,NNW,337,0.0,0.0,98,0.00,,,0.00,WUHU21623XXSP,2012-12-09 06:30:00,
2012-12-08 22:35:00,33.1,32.5,30.29,NNW,337,0.0,0.0,98,0.00,,,0.00,WUHU21623XXSP,2012-12-09 06:35:00,
2012-12-08 22:40:00,33.1,32.5,30.29,North,0,0.0,0.0,98,0.00,,,0.00,WUHU21623XXSP,2012-12-09 06:40:00,
2012-12-08 22:45:00,33.1,32.5,30.29,North,0,0.0,0.0,98,0.00,,,0.00,WUHU21623XXSP,2012-12-09 06:45:00,
2012-12-08 22:50:00,33.1,32.5,30.29,North,0,0.0,0.0,98,0.00,,,0.00,WUHU21623XXSP,2012-12-09 06:50:00,
2012-12-08 22:55:00,33.1,32.5,30.29,North,0,0.0,0.0,98,0.00,,,0.00,WUHU21623XXSP,2012-12-09 06:55:00,
2012-12-08 23:00:00,33.1,32.5,30.30,North,0,0.0,0.0,98,0.00,,,0.00,WUHU21623XXSP,2012-12-09 07:00:00,
2012-12-08 23:05:00,33.1,32.5,30.29,North,0,0.0,0.0,98,0.00,,,0.00,WUHU21623XXSP,2012-12-09 07:05:00,
2012-12-08 23:10:00,33.3,32.5,30.30,North,0,0.0,0.0,98,0.00,,,0.00,WUHU21623XXSP,2012-12-09 07:10:00,
2012-12-08 23:15:00,33.3,32.7,30.29,North,0,0.0,0.0,98,0.00,,,0.00,WUHU21623XXSP,2012-12-09 07:15:00,
2012-12-08 23:20:00,33.3,32.7,30.29,North,0,0.0,0.0,98,0.00,,,0.00,WUHU21623XXSP,2012-12-09 07:20:00,
2012-12-08 23:25:00,33.3,32.5,30.29,North,0,0.0,0.0,98,0.00,,,0.00,WUHU21623XXSP,2012-12-09 07:25:00,
2012-12-08 23:30:00,33.1,32.5,30.29,North,0,0.0,0.0,98,0.00,,,0.00,WUHU21623XXSP,2012-12-09 07:30:00,
2012-12-08 23:35:00,33.3,32.5,30.29,North,0,0.0,0.0,98,0.00,,,0.00,WUHU21623XXSP,2012-12-09 07:35:00,
2012-12-08 23:40:00,33.3,32.7,30.29,North,0,0.0,0.0,98,0.00,,,0.00,WUHU21623XXSP,2012-12-09 07:40:00,
2012-12-08 23:45:00,33.3,32.7,30.29,North,0,0.0,0.0,98,0.00,,,0.00,WUHU21623XXSP,2012-12-09 07:45:00,
2012-12-08 23:50:00,33.3,32.7,30.29,North,0,0.0,0.0,98,0.00,,,0.00,WUHU21623XXSP,2012-12-09 07:50:00,
2012-12-08 23:55:00,33.4,32.9,30.29,North,0,0.0,0.0,98,0.00,,,0.00,WUHU21623XXSP,2012-12-09 07:55:00,